STARLINK-30786

decayed
NORAD ID: 58216 Int'l Des: 2023-170 Owner: SPXS Country: US Constellation: starlink
LEOCIRCULAR
Group

About STARLINK-30786

Description loading...

Altitude History

Altitude vs Time

uPlot chart will show altitude changes over time

Two-Line Element Set

1 58216U 23170L 24324.96074206 .26386028 91806-5 60335-2 0 9997
2 58216 42.9892 138.8605 0011121 308.1897 180.6757 16.28833467 60245
Epoch: Nov 19, 2024 • Age: 7189 hours

Current Status

Position data unavailable
Launch Date Nov 4, 2023
Age 1.8 years
Decay Date Nov 20, 2024
Type internet

Technical Details

Classification Payload
Mass 730.00 kg
Dry Mass 700.00 kg
Total Mass 730.00 kg
Length 0.30 m
Diameter 4.10 m
Span 29.00 m
Shape Box + pan
Manufacturer SPXS
Bus Type Starlink V2M
Phase Status Reentered
Owner/State SPXS/US

Large Constellations

Loading constellations...